www.pogodaiklimat.ru

Погода и климат >> Архив погоды >> Австралия >> Западная Австралия >> Джеральдтон


ПОГОДА в Джеральдтоне

  • Прогноз погоды в Джеральдтоне
  • Монитор погоды в Джеральдтоне

АРХИВ ПОГОДЫ в Джеральдтоне

Время (UTC), дата Ветер
(напр.,м/с)
 
Видим.   Явления Облачность Т
(С)
Тd
(С)
f
(%)
Тe
(С)
Тes
(С)
Комфортность P
(гПа)
Po
(гПа)
Тmin
(С)
Tmax
(С)
R
(мм)
R24
(мм)
S
(см)
19 9.01 штиль 0 300 м 6/6 300 м
[]
+17.2 +16.4 95 +17 +17 1011.8 1008.3
21 9.01 ЮВ 1 н/о н/о +17.0 +16.2 95 +18 +18 1012.6 1009.1
22 9.01 штиль 0 н/о 3/3 300 м
[]
+17.0 +16.2 95 +17 +17 1012.9 1009.4
00 10.01 ЮВ 3 н/о н/о +22.3 +18.1 77 +27 +27 душно 1013.1 1009.6
01 10.01 Ю 4 н/о н/о +24.3 +17.1 64 +28 +28 душно 1012.6 1009.1 +16.0
03 10.01 Ю 6 н/о н/о +26.4 +16.3 54 +30 +30 душно 1012.7 1009.2
04 10.01 ЮЗ 9 н/о 1/0
[]
+25.7 +17.6 61 +30 +32 душно 1012.9 1009.4
06 10.01 ЮЗ 9 н/о н/о +24.9 +17.1 62 +29 +29 душно 1013.2 1009.7
07 10.01 ЮЗ 9 н/о н/о +25.4 +17.1 60 +29 +29 душно 1013.2 1009.7
09 10.01 Ю 9 н/о н/о +23.3 +16.4 65 +28 +28 душно 1013.5 1010.0
10 10.01 Ю 8 н/о н/о +22.7 +16.5 68 +27 +27 душно 1013.7 1010.2
12 10.01 Ю 7 н/о н/о +20.7 +15.9 74 +24 +24 комфорт 1014.8 1011.3
13 10.01 Ю 7 н/о 10/10 600 м
[]
+20.6 +15.4 72 +23 +23 комфорт 1015.3 1011.8 +27.7
15 10.01 Ю 7 н/о н/о +20.7 +15.3 71 +23 +23 комфорт 1015.4 1011.9
16 10.01 Ю 7 н/о 10/10 600 м
[]
+20.2 +13.9 67 +22 +22 комфорт 1015.3 1011.8
18 10.01 ЮВ 6 н/о н/о +18.4 +13.1 71 +18 +18 1014.8 1011.3
19 10.01 ЮВ 5 н/о 9/9 600 м
[]
+18.4 +13.3 72 +18 +18 1014.6 1011.1
21 10.01 ЮВ 5 н/о н/о +18.5 +13.4 72 +19 +19 1015.3 1011.8
22 10.01 ЮВ 5 н/о 5/5 600 м
[]
+18.2 +13.3 73 +18 +18 1015.9 1012.4
00 11.01 ЮВ 9 н/о н/о +22.2 +14.1 60 +25 +25 комфорт 1016.6 1013.1
01 11.01 ЮВ 8 н/о н/о +23.5 +12.8 51 +26 +26 жарко 1016.3 1012.8 +18.0
03 11.01 Ю 9 н/о н/о +25.6 +14.4 50 +28 +28 жарко 1015.3 1011.8
04 11.01 Ю 9 н/о н/о +25.6 +14.4 50 +28 +28 жарко 1014.9 1011.4
06 11.01 Ю 10 н/о н/о +25.9 +15.0 51 +29 +29 душно 1013.6 1010.1
07 11.01 Ю 10 н/о н/о +25.7 +15.4 53 +29 +29 душно 1013.0 1009.5
09 11.01 Ю 11 н/о н/о +23.7 +16.2 63 +27 +27 жарко 1012.5 1009.0
10 11.01 Ю 11 н/о н/о +22.7 +16.5 68 +27 +27 душно 1012.6 1009.1
12 11.01 Ю 8 н/о н/о +20.4 +16.8 80 +23 +23 комфорт 1013.5 1010.0
13 11.01 Ю 8 н/о н/о +20.1 +16.7 81 +22 +22 комфорт 1013.8 1010.3 +27.7
15 11.01 Ю 7 н/о н/о +19.6 +16.3 81 +21 +21 комфорт 1014.1 1010.6
16 11.01 Ю 7 н/о н/о +19.4 +16.4 83 +21 +21 комфорт 1013.6 1010.1
18 11.01 Ю 5 н/о н/о +18.6 +15.5 82 +19 +19 1012.5 1009.0
19 11.01 ЮВ 3 н/о н/о +16.9 +14.0 83 +17 +17 1012.2 1008.7
21 11.01 ЮВ 2 н/о н/о +14.7 +12.4 86 +14 +14 1012.7 1009.2
22 11.01 ЮВ 3 н/о н/о +14.0 +11.9 87 +13 +13 1012.6 1009.1
00 12.01 ЮВ 4 н/о н/о +22.4 +15.5 65 +26 +26 жарко 1012.9 1009.4
01 12.01 Ю 7 н/о н/о +24.7 +16.9 62 +28 +28 душно 1012.3 1008.8 +13.6
03 12.01 Ю 8 н/о н/о +26.6 +17.4 57 +31 +31 душно 1012.0 1008.5
04 12.01 Ю 9 н/о н/о +26.3 +17.9 60 +31 +31 душно 1011.6 1008.1
06 12.01 Ю 9 н/о н/о +26.7 +18.0 59 +31 +31 душно 1010.8 1007.3
07 12.01 Ю 9 н/о н/о +26.9 +17.4 56 +31 +31 душно 1010.6 1007.1
09 12.01 Ю 8 н/о н/о +25.1 +18.3 66 +30 +30 душно 1010.4 1006.9
10 12.01 ЮЗ 8 н/о н/о +23.5 +18.4 73 +28 +28 душно 1010.7 1007.2
12 12.01 Ю 6 н/о н/о +21.2 +18.6 85 +26 +26 душно 1012.2 1008.7
13 12.01 Ю 6 н/о 9/9 300 м
[]
+20.9 +18.1 84 +25 +25 комфорт 1012.6 1009.1 +28.0
15 12.01 Ю 5 н/о н/о +20.2 +17.6 85 +23 +23 комфорт 1012.8 1009.3
16 12.01 Ю 4 н/о н/о +19.4 +17.2 87 +22 +22 комфорт 1012.5 1009.0
18 12.01 Ю 4 н/о н/о +18.7 +17.0 90 +20 +20 1011.5 1008.0
19 12.01 Ю 4 н/о 1/1 300 м
[]
+18.8 +17.1 90 +20 +20 1011.5 1008.0
21 12.01 Ю 4 н/о н/о +18.8 +16.8 88 +20 +20 1012.4 1008.9
22 12.01 Ю 5 н/о 9/9 300 м
[]
+19.9 +17.3 85 +22 +22 комфорт 1013.2 1009.7
00 13.01 Ю 8 н/о н/о +22.4 +16.4 69 +27 +27 душно 1014.9 1011.4
01 13.01 Ю 9 н/о 5/5 600 м
[]
+23.6 +15.4 60 +27 +27 жарко 1014.8 1011.3 +18.2
03 13.01 Ю 10 н/о н/о +25.1 +16.3 58 +28 +28 жарко 1014.5 1011.0
04 13.01 Ю 11 н/о 1/1 600 м
[]
+25.6 +16.5 57 +29 +29 душно 1014.3 1010.8
06 13.01 Ю 10 н/о н/о +26.1 +17.2 58 +30 +30 душно 1013.6 1010.1
07 13.01 Ю 12 н/о н/о +25.7 +16.8 58 +29 +29 душно 1013.0 1009.5
09 13.01 Ю 11 н/о н/о +24.0 +17.7 68 +28 +28 душно 1013.1 1009.6
10 13.01 Ю 11 н/о 1/1 300 м
[]
+22.4 +17.1 72 +27 +27 душно 1013.4 1009.9
12 13.01 Ю 9 н/о н/о +21.1 +17.5 80 +25 +25 комфорт 1014.5 1011.0
13 13.01 Ю 9 н/о 10/10 300 м
[]
+21.2 +17.2 78 +25 +25 комфорт 1014.6 1011.1 +27.6
15 13.01 Ю 9 н/о н/о +21.0 +16.6 76 +24 +24 комфорт 1014.6 1011.1
16 13.01 Ю 8 н/о 10/10 300 м
[]
+21.1 +16.7 76 +25 +25 комфорт 1013.9 1010.4
18 13.01 Ю 10 н/о н/о +21.0 +16.8 77 +24 +24 комфорт 1012.4 1008.9
19 13.01 Ю 10 н/о 9/9 300 м
[]
+20.6 +17.0 80 +23 +23 комфорт 1011.9 1008.4
21 13.01 Ю 8 н/о н/о +20.5 +16.9 80 +23 +23 комфорт 1011.8 1008.3
22 13.01 Ю 8 н/о 10/10 300 м
[]
+20.8 +17.0 79 +24 +24 комфорт 1012.2 1008.7
00 14.01 Ю 9 н/о н/о +23.3 +18.2 73 +29 +29 душно 1012.3 1008.8
01 14.01 Ю 9 н/о 1/1 600 м
[]
+24.1 +17.4 66 +28 +29 душно 1012.0 1008.5 +19.8
03 14.01 Ю 9 н/о н/о +26.4 +18.0 60 +31 +31 душно 1010.9 1007.4
04 14.01 Ю 10 н/о н/о +27.1 +17.6 56 +31 +31 душно 1010.7 1007.2
06 14.01 Ю 12 н/о н/о +26.5 +18.1 60 +31 +31 душно 1010.0 1006.5
07 14.01 Ю 11 н/о 1/1 300 м
[]
+26.0 +18.4 63 +31 +31 очень
душно
1009.7 1006.2
09 14.01 Ю 12 н/о н/о +22.9 +17.6 72 +28 +28 душно 1009.3 1005.8
10 14.01 Ю 12 н/о 8/8 300 м
[]
+22.0 +17.6 76 +27 +27 душно 1009.5 1006.0
12 14.01 Ю 10 н/о н/о +20.3 +16.7 80 +23 +23 комфорт 1011.1 1007.6
13 14.01 Ю 11 н/о н/о +20.2 +16.2 78 +22 +22 комфорт 1011.2 1007.7 +28.2
15 14.01 Ю 10 н/о н/о +20.4 +16.4 78 +23 +23 комфорт 1011.6 1008.1
16 14.01 Ю 11 н/о 10/10 300 м
[]
+20.3 +16.1 77 +22 +22 комфорт 1011.3 1007.8
18 14.01 Ю 9 н/о н/о +20.1 +16.1 78 +22 +22 комфорт 1010.4 1006.9
19 14.01 Ю 9 н/о 10/10 300 м
[]
+19.9 +15.7 77 +22 +22 комфорт 1010.2 1006.7
21 14.01 Ю 8 н/о н/о +19.8 +15.7 77 +21 +21 комфорт 1010.6 1007.1
22 14.01 Ю 8 н/о 10/10 300 м
[]
+19.8 +15.7 77 +21 +21 комфорт 1011.2 1007.7
00 15.01 Ю 10 н/о н/о +21.1 +16.1 73 +24 +24 комфорт 1011.6 1008.1
01 15.01 Ю 10 н/о 9/9 300 м
[]
+22.5 +16.8 70 +27 +27 душно 1011.4 1007.9 +19.7
03 15.01 Ю 9 н/о н/о +24.1 +16.9 64 +28 +28 душно 1011.0 1007.5
04 15.01 Ю 9 н/о н/о +24.4 +16.1 60 +28 +28 душно 1010.8 1007.3
06 15.01 Ю 10 н/о н/о +23.9 +16.2 62 +27 +27 жарко 1010.7 1007.2
07 15.01 Ю 10 н/о 1/1 600 м
[]
+23.9 +15.9 61 +27 +28 жарко 1010.4 1006.9
09 15.01 Ю 11 н/о н/о +22.1 +15.9 68 +26 +26 душно 1009.8 1006.3
10 15.01 Ю 11 н/о 9/9 300 м
[]
+21.4 +16.4 73 +25 +25 комфорт 1009.9 1006.4
12 15.01 Ю 11 н/о н/о +20.1 +15.5 75 +22 +22 комфорт 1010.7 1007.2
13 15.01 Ю 10 н/о 10/10 300 м
[]
+20.0 +15.4 75 +22 +22 комфорт 1011.3 1007.8 +26.7
15 15.01 Ю 9 н/о н/о +19.7 +15.1 75 +21 +21 комфорт 1011.4 1007.9
16 15.01 Ю 8 н/о 10/10 300 м
[]
+19.8 +15.2 75 +21 +21 комфорт 1011.3 1007.8
18 15.01 Ю 8 н/о н/о +19.7 +14.5 72 +21 +21 комфорт 1010.5 1007.0
19 15.01 Ю 8 н/о 9/9 600 м
[]
+19.6 +14.4 72 +21 +21 комфорт 1010.4 1006.9
21 15.01 Ю 7 н/о н/о +19.7 +14.5 72 +21 +21 комфорт 1010.7 1007.2
22 15.01 Ю 7 н/о 9/9 600 м
[]
+19.8 +14.6 72 +21 +21 комфорт 1011.1 1007.6
00 16.01 Ю 8 н/о н/о +21.6 +15.2 67 +25 +25 комфорт 1011.8 1008.3
01 16.01 Ю 8 н/о 9/9 600 м
[]
+22.1 +15.0 64 +26 +26 душно 1012.0 1008.5 +19.4
03 16.01 Ю 9 н/о н/о +23.8 +14.5 56 +26 +26 жарко 1011.8 1008.3
04 16.01 Ю 9 н/о 9/9 600 м
[]
+23.9 +15.4 59 +27 +27 жарко 1011.6 1008.1
06 16.01 Ю 8 н/о н/о +24.1 +16.1 61 +27 +27 жарко 1011.0 1007.5
07 16.01 Ю 9 н/о 6/6 600 м
[]
+24.4 +15.9 59 +28 +28 душно 1010.8 1007.3
09 16.01 Ю 10 н/о н/о +21.9 +15.7 68 +26 +26 душно 1010.6 1007.1
10 16.01 Ю 10 н/о 10/10 600 м
[]
+21.1 +15.6 71 +24 +24 комфорт 1011.0 1007.5
12 16.01 Ю 9 н/о н/о +19.9 +14.9 73 +21 +21 комфорт 1012.3 1008.8
13 16.01 Ю 10 н/о 9/9 600 м
[]
+19.7 +14.7 73 +21 +21 комфорт 1012.6 1009.1 +26.0
15 16.01 Ю 6 н/о н/о +19.5 +15.0 75 +21 +21 комфорт 1012.8 1009.3
16 16.01 Ю 8 н/о 5/5 600 м
[]
+19.2 +14.7 75 +20 +20 1012.1 1008.6
18 16.01 ЮВ 5 н/о н/о +18.9 +14.4 75 +20 +20 1011.5 1008.0
19 16.01 ЮВ 5 н/о 10/10 600 м
[]
+18.4 +14.1 76 +19 +19 1011.5 1008.0

 

Местоположение метеостанции Джеральдтон (Западная Австралия, Австралия): широта -28.80 долгота 114.70 высота над уровнем моря 35 м.

В архиве по умолчанию представлена погода в Джеральдтоне за последнюю неделю. Архивные данные за месяц целиком и за предыдущие месяцы, начиная с января 2011 года, Вы можете получить, выбрав интересующий диапазон дат из раскрывающегося списка и нажав кнопку "Ввод!".


*Определитесь, кто Вы:
робот инопланетянин человек

Внимание! Время в таблицах - всемирное. Для получения местного времени необходимо прибавить поправку, которая равна 8 ч.

Смотрите также архив погоды в соседних городах и на ближайших метеорологических станциях:

Погода в Мораве (Западная Австралия, Австралия) (136 км)
Погода в Баджингарре (Западная Австралия, Австралия) (188 км)
Погода в Дауоллину (Западная Австралия, Австралия) (252 км)
Погода в Маунт Магнет (Западная Австралия, Австралия) (316 км)
Погода в Гингине (Западная Австралия, Австралия) (318 км)
Погода в Шарк-Бэе (Западная Австралия, Австралия) (341 км)
Погода в Буллсбрук Пирс (Западная Австралия, Австралия) (343 км)
Погода в Ошен Риф (Западная Австралия, Австралия) (344 км)
Погода в Перт Монт-Лоули (Западная Австралия, Австралия) (365 км)
Погода в Суонборне (Западная Австралия, Австралия) (365 км)

Пояснения к столбцам:

Ветер - указаны скорость ветра в м/с - средняя за 10 мин, порывы в срок и между сроками (в фигурных скобках) и направление, откуда дует ветер: С - северный, СВ - северо-восточный, В - восточный, ЮВ - юго-восточный, Ю - южный, ЮЗ - юго-западный, З - западный, СЗ - северо-западный.
Видимость - горизонтальная дальность видимости в метрах или километрах. При видимости от 1 до 10 км при отсутствии осадков обычно наблюдается дымка, при ухудшении видимости до 1 км и менее - туман. В сухую погоду видимость может ухудшаться дымом, пылью или мглою.
Явления - указаны атмосферные явления, наблюдавшиеся в срок или в последний час перед сроком; фигурными скобками обозначены явления, наблюдавшиеся между сроками (за 1-3 часа до срока); квадратными скобками обозначены град или гололедные отложения с указанием их диаметра в мм.
Облачность - указаны через наклонную черту общая и нижняя облачность в баллах и высота нижней границы облаков в метрах; квадратными скобками обозначены формы облаков: Ci - перистые, Cs - перисто-слоистые, Cc - перисто-кучевые, Ac - высококучевые, As - высокослоистые, Sc - слоисто-кучевые, Ns - слоисто-дождевые, Cu - кучевые, Cb - кучево-дождевые. Подробнее классификацию облаков см. в Атласе облаков (PDF).
T - Температура воздуха - температура, измеренная на высоте 2 м над землей.
Td - Температура точки росы - температура, при понижении до которой содержащийся в воздухе водяной пар достигнет насыщения.
f - Относительная влажность воздуха - влажноcть воздуха, измеренная на высоте 2 м над землей.
Te - Эффективная температура - температура, которую ощущает одетый по сезону человек в тени. Характеристика душности погоды. При расчете учитывается влияние влажности воздуха и скорости ветра на теплоощущения человека.
Tes - Эффективная температура на солнце - температура, которую ощущает человек, с поправкой на солнечный нагрев. Характеристика знойности погоды. Зависит от высоты солнца над горизонтом, облачности и скорости ветра. Ночью, в пасмурную погоду, а также при ветре 12 м/с и более поправка равна нулю.
P - Атмосферное давление - приведенное к уровню моря атмосферное давление.
Po - Атмосферное давление - измеренное на уровне метеостанции атмосферное давление.
Tmin - Минимальная температура - минимум температуры воздуха на высоте 2 м над землей.
Tmax - Максимальная температура - максимум температуры воздуха на высоте 2 м над землей.
R - Количество осадков - Количество выпавших осадков за период времени, мм. При наведении курсора мыши на число - период времени, за который выпало указанное количество осадков.
R24 - Количество осадков - Количество выпавших осадков за 24 часа, мм.
S - Снежный покров - Высота снежного покрова, см. При наведении курсора мыши на число - состояние снежного покрова и степень покрытия местности в баллах.